SCP
2 2 2 1 1 1 1 1 1 1 1 1 1 1 1 1 1 1 1 0 1 2 2 2 2 2 1 1 1 1 1 1 1 1 1 0 0 0 0 0 0 0 0
2 2 1 1 1 1 1 1 1 1 1 1 1 1 1 1 1 1 1 1 1 1 2 2 2 1 1 1 1 1 1 1 1 1 1 1 0 0 0 0 0 0 0
2 2 1 1 1 1 1 1 1 1 1 1 1 1 1 1 1 1 1 1 1 1 1 2 1 1 1 1 1 1 1 1 1 1 1 1 1 0 0 0 0 0 0
2 2 1 1 1 1 1 1 1 1 1 1 1 1 1 1 1 1 1 1 1 1 1 1 1 1 2 2 1 1 1 1 1 1 1 1 1 1 0 0 0 0 0
2 2 2 1 1 1 1 1 1 1 1 1 1 1 1 1 1 1 1 1 1 1 1 1 1 1 1 2 2 2 2 2 2 1 1 1 1 1 0 0 0 0 0
2 2 1 1 1 1 1 1 1 1 0 1 1 1 1 1 1 1 1 1 1 1 1 1 1 1 1 1 1 2 2 2 2 2 1 1 1 1 1 0 0 0 0
2 1 1 1 1 2 2 1 1 1 1 0 0 0 1 1 1 1 1 1 1 1 1 1 1 1 1 1 1 1 2 2 2 2 2 2 1 1 1 1 1 1 0
1 1 1 1 1 1 2 2 1 1 1 0 0 0 0 0 0 0 1 1 1 1 1 1 1 1 1 1 0 1 1 2 2 2 2 2 2 1 1 1 1 1 1
1 1 0 0 1 1 1 1 1 1 1 1 1 0 0 0 0 0 0 1 1 1 1 1 1 1 1 1 1 0 0 1 1 1 2 2 2 1 1 1 1 1 1
1 0 0 0 0 0 1 1 1 1 1 1 1 0 0 0 0 0 0 0 0 0 1 1 1 1 1 1 1 1 0 0 1 1 1 2 2 1 1 1 1 1 1
0 0 0 0 0 0 0 1 1 1 1 1 1 0 0 0 0 0 0 0 0 0 0 0 0 1 1 1 1 1 0 0 1 1 1 1 2 2 2 1 1 1 1
0 0 0 0 0 0 0 0 1 1 1 1 0 0 0 0 0 0 0 0 0 0 0 0 0 0 1 1 1 1 0 0 1 1 1 1 2 2 2 2 1 1 1
0 0 0 0 0 0 0 0 0 1 1 0 0 0 0 0 0 0 0 0 0 0 0 0 0 0 0 0 1 0 0 0 0 1 1 1 2 2 2 2 2 2 1
0 0 0 0 0 0 0 0 0 0 0 0 0 0 0 0 0 0 0 0 0 0 0 0 0 0 0 0 0 0 0 0 0 0 1 1 1 1 1 1 1 1 1
0 0 0 0 0 0 0 0 0 0 0 0 0 0 0 0 0 0 0 0 0 0 0 0 0 0 0 0 0 0 0 0 0 0 0 0 0 0 0 1 1 1 1
0 0 0 0 0 0 0 0 0 0 0 0 0 0 0 0 0 0 0 0 0 0 0 0 0 0 0 0 0 0 0 0 0 0 0 0 0 0 0 0 0 0 0
0 0 0 0 0 0 0 0 0 0 0 0 0 0 0 0 0 0 0 0 0 0 0 0 0 0 0 0 0 0 0 0 0 0 0 0 0 0 0 0 0 0 0
0 0 0 0 0 0 0 0 0 0 0 0 0 0 0 0 0 0 0 0 0 0 0 0 0 0 0 0 0 0 0 0 0 0 0 0 0 0 0 0 0 0 0
0 0 0 0 0 0 0 0 0 0 0 0 0 0 0 0 0 0 0 0 0 0 0 0 0 0 0 0 0 0 0 0 0 0 0 0 0 0 0 0 0 0 0
0 0 0 0 0 0 0 0 0 0 0 0 0 0 0 0 0 0 0 0 0 0 0 0 0 0 0 0 0 0 0 0 0 0 0 0 0 0 0 0 0 0 0
0 0 0 0 0 0 0 0 0 0 0 0 0 0 0 0 0 0 0 0 0 0 0 0 0 0 0 0 0 0 0 0 0 0 0 0 0 0 0 0 0 0 0
0 0 0 0 0 0 0 0 0 0 0 0 0 0 0 0 0 0 0 0 0 0 0 0 0 0 0 0 0 0 0 0 0 0 0 0 0 0 0 0 0 0 0
0 0 0 0 0 0 0 0 0 0 0 0 0 0 0 0 0 0 0 0 0 0 0 0 0 0 0 0 0 0 0 0 0 0 0 0 0 0 0 0 0 0 0
0 0 0 0 0 0 0 0 0 0 0 0 0 0 0 0 0 0 0 0 0 0 0 0 0 0 0 0 0 0 0 0 0 0 0 0 0 0 0 0 0 0 0
0 0 0 0 0 0 0 0 0 0 0 0 0 0 0 0 0 0 0 0 0 0 0 0 0 0 0 0 0 0 0 0 0 0 0 0 0 0 0 0 0 0 0
0 0 0 0 0 0 0 0 0 0 0 0 0 0 0 0 0 0 0 0 0 0 0 0 0 0 0 0 0 0 0 0 0 0 0 0 0 0 0 0 0 0 0
Wind_Speed
1 1 1 1 2 2 2 2 3 3 4 4 4 4 4 5 4 3 3 9 9 9 10 10 10 9 9 9 8 7 7 7 7 7 7 7 6 6 6 6 5 5 6
1 2 2 1 2 2 2 2 3 3 2 2 3 3 3 3 3 3 3 5 8 9 10 11 11 10 10 9 9 8 7 8 7 7 7 7 6 5 5 5 6 6 6
2 2 2 2 2 2 2 2 2 2 2 2 3 3 2 2 3 3 4 4 5 8 10 11 12 10 9 9 9 8 7 6 6 5 6 6 6 6 5 5 6 6 7
3 2 2 2 3 2 2 2 2 2 2 2 2 2 2 2 3 3 2 3 3 4 7 10 9 9 8 8 8 8 7 6 6 6 6 6 6 5 6 6 6 6 7
3 3 2 2 2 2 2 2 2 1 2 2 2 2 2 2 2 2 2 2 2 3 4 6 8 8 7 7 7 7 7 5 5 5 6 6 6 6 7 7 7 7 7
4 3 2 3 2 2 1 2 2 2 1 1 2 2 1 2 2 2 2 2 2 2 3 3 4 5 6 6 6 7 7 6 5 5 6 7 7 8 9 9 9 9 9
3 3 3 3 2 2 2 2 2 2 2 1 0 2 2 3 3 2 2 1 2 2 2 2 2 2 3 6 6 6 7 7 7 6 7 8 9 9 10 10 10 10 10
3 3 3 3 3 2 3 3 2 1 2 1 1 1 2 2 2 2 1 2 2 1 1 2 2 2 2 2 2 4 5 7 8 8 8 9 10 11 11 11 11 11 11
3 3 4 3 3 2 2 2 2 2 2 2 1 1 2 2 1 1 1 1 1 1 1 0 1 1 1 1 1 2 3 5 8 9 10 11 11 12 12 12 12 12 12
3 3 4 4 3 2 2 2 2 2 1 2 1 1 1 1 1 1 1 1 1 1 1 1 1 1 1 1 1 1 2 4 7 9 10 11 12 12 12 12 12 12 12
3 3 3 3 3 2 2 2 2 2 1 2 1 1 2 1 2 2 2 2 1 1 1 1 1 1 1 1 1 1 2 4 7 9 10 11 12 12 12 12 13 13 13
2 3 3 3 3 2 3 2 2 2 2 2 1 1 1 1 2 2 2 2 2 2 1 1 1 1 1 0 1 2 3 5 7 9 11 11 12 12 13 13 13 13 13
2 3 3 3 3 3 3 2 2 2 2 1 1 1 1 2 1 1 2 2 2 2 1 1 1 1 1 0 1 3 5 6 8 10 11 12 12 12 12 13 14 14 14
2 2 2 3 3 3 3 2 2 2 1 1 1 1 1 1 1 1 1 1 2 2 2 3 1 1 1 1 2 4 4 6 8 10 11 11 12 12 12 13 14 14 14
2 2 2 2 2 2 2 2 2 2 1 1 1 1 1 1 1 1 1 1 2 3 3 2 1 1 1 1 2 2 3 6 9 9 10 11 11 12 12 13 13 13 13
2 2 2 2 2 2 2 2 2 1 1 1 1 1 1 1 1 1 1 1 1 3 3 2 1 1 1 2 3 2 3 8 9 10 10 11 11 11 12 12 12 12 12
2 2 2 2 2 2 2 2 1 1 1 1 1 1 1 1 1 1 1 1 1 1 3 3 1 1 1 2 3 3 3 4 4 9 11 11 11 11 11 11 12 12 13
2 2 2 2 2 2 1 2 2 2 2 2 1 1 1 1 1 1 1 1 1 1 2 3 2 1 2 3 3 4 4 4 4 8 10 10 10 11 11 12 12 12 12
2 2 2 2 2 2 2 2 2 2 2 2 1 2 2 1 2 1 1 1 1 2 1 2 2 2 2 3 3 3 4 4 5 7 9 8 9 11 12 12 12 11 12
3 3 2 2 2 2 2 2 2 2 2 1 1 1 1 2 2 2 2 2 1 1 1 2 2 2 2 3 2 3 4 4 5 5 6 7 9 11 12 12 12 11 12
3 3 2 2 2 2 2 2 2 2 2 2 2 2 2 2 2 2 1 1 1 1 1 2 2 2 2 2 2 2 4 5 5 3 3 4 5 5 6 9 10 11 12
3 3 3 3 2 2 2 2 2 2 2 3 3 2 2 3 3 3 2 2 1 2 2 2 2 3 3 3 3 3 4 5 4 2 4 6 4 4 4 4 9 13 13
4 4 4 3 3 3 3 3 3 3 3 3 3 2 2 1 2 1 2 3 3 4 3 3 3 4 3 3 3 4 4 5 5 4 5 6 4 5 5 6 12 14 13
4 4 4 4 4 4 5 4 4 3 2 2 2 2 2 2 1 1 2 2 2 2 3 2 2 3 3 3 3 4 5 5 4 4 3 4 4 4 5 5 10 11 12
4 4 4 4 4 4 6 6 5 2 3 3 3 2 2 2 2 2 2 2 2 1 2 2 2 4 5 6 5 2 2 3 4 4 2 2 3 5 5 4 5 10 12
4 4 4 4 5 4 6 7 6 3 3 3 3 3 3 3 3 3 2 2 2 2 1 2 2 3 3 4 6 2 2 2 3 3 2 3 3 4 5 3 3 5 7
Wind_Direction
316 314 294 275 253 242 231 229 230 231 225 220 213 208 216 220 209 191 176 183 190 200 210 216 220 223 226 229 233 237 240 240 244 246 250 253 256 267 274 278 286 295 301
316 310 295 289 281 270 254 238 234 235 236 231 230 223 217 224 219 196 181 190 198 203 213 221 225 228 232 234 237 239 241 243 247 252 254 256 257 264 274 282 285 289 294
315 301 293 287 279 279 280 277 269 255 242 240 240 245 240 230 227 209 195 186 193 207 214 223 227 230 235 239 242 244 243 241 246 251 257 259 262 263 268 278 281 282 285
316 301 288 282 282 288 287 272 253 254 245 240 240 247 256 253 240 225 207 192 191 195 208 217 221 224 230 237 240 243 245 245 247 251 255 259 262 263 265 271 277 282 284
319 305 278 276 286 290 297 288 270 244 247 249 250 246 245 258 252 232 221 208 194 186 186 200 209 218 226 234 240 243 248 253 256 255 258 264 265 267 270 273 277 281 282
320 318 303 296 299 291 296 295 284 272 257 245 265 276 262 254 252 237 234 224 196 190 191 191 195 207 212 222 234 245 249 253 259 264 265 267 269 268 269 272 274 277 280
315 314 309 300 291 280 272 273 271 255 259 262 287 294 286 256 245 235 217 209 217 207 194 194 197 192 198 216 225 240 251 256 257 262 265 265 268 269 268 270 271 273 276
323 321 312 300 289 281 278 272 266 253 245 224 201 234 272 280 266 247 214 207 209 200 207 214 202 202 188 176 193 225 247 259 265 268 270 270 268 270 270 272 274 275 275
330 329 317 308 300 284 267 264 248 241 244 245 234 200 212 235 298 294 279 238 198 193 206 213 204 199 190 160 168 217 242 268 272 274 276 277 274 270 271 272 274 276 278
325 326 321 318 311 311 301 289 294 282 247 245 269 266 250 234 221 281 287 268 229 233 234 241 231 227 205 191 176 198 251 274 279 283 284 284 284 283 278 276 277 278 280
323 323 318 320 319 313 310 311 312 303 278 253 247 261 272 286 247 226 255 259 282 266 238 225 226 233 234 207 207 246 275 279 281 286 288 289 288 289 291 288 285 283 283
316 328 320 318 318 319 315 301 286 283 274 269 270 264 240 235 239 230 241 249 256 264 259 245 223 224 236 237 283 300 291 291 287 286 289 292 293 294 296 295 294 291 289
304 308 313 310 310 308 306 306 296 287 279 267 264 272 272 269 276 251 236 255 264 272 257 261 241 224 239 253 293 300 294 295 293 292 293 296 298 298 297 294 292 292 291
275 285 299 303 307 308 307 307 300 287 293 279 275 273 270 285 294 277 233 243 270 267 249 250 261 229 268 268 280 284 289 298 296 294 294 297 299 298 296 294 293 290 290
284 287 285 292 299 301 301 309 301 297 303 279 274 275 273 281 269 278 265 218 218 249 257 240 239 257 265 257 290 292 290 298 297 296 296 296 295 294 293 291 291 290 289
290 288 285 279 279 286 296 300 296 292 276 270 265 267 277 284 274 262 246 250 228 226 250 249 243 270 279 300 303 305 297 306 300 298 296 295 293 293 294 294 292 292 291
279 280 277 270 269 272 276 280 280 287 276 280 273 255 271 301 300 301 289 270 259 233 249 274 279 307 313 309 311 305 300 296 300 299 297 295 295 296 296 295 293 291 289
265 270 274 272 266 263 258 256 264 256 245 257 279 281 277 277 281 280 275 269 267 257 241 269 287 300 299 295 298 301 307 309 300 301 300 299 300 298 297 295 293 291 290
256 263 262 263 266 268 265 263 257 254 245 250 256 255 262 258 265 267 264 268 273 281 260 260 280 296 301 300 303 308 308 308 307 305 304 305 307 307 304 303 299 297 296
238 243 245 250 257 266 262 262 256 251 247 250 259 261 262 252 254 258 255 265 274 282 282 269 278 295 296 294 304 313 314 311 307 308 305 311 312 313 310 307 305 303 299
237 236 239 243 245 242 248 250 245 247 238 243 248 248 247 248 255 250 253 262 264 260 267 272 282 297 297 312 310 310 309 309 299 297 309 308 310 306 307 307 309 308 305
236 233 232 234 237 235 240 247 249 251 244 237 236 236 235 239 246 254 261 270 252 239 247 257 274 284 291 299 301 306 310 311 303 309 316 303 302 298 299 299 309 311 310
230 232 231 227 229 224 223 236 252 248 244 240 234 234 245 253 243 248 260 265 271 274 259 242 254 265 277 288 296 294 293 293 284 298 308 295 299 292 298 307 312 312 312
223 226 228 224 224 222 218 231 249 242 237 233 223 220 227 244 240 239 243 246 248 268 269 255 250 270 285 287 274 281 286 292 289 294 297 285 297 294 302 300 303 308 317
225 224 222 220 223 225 218 227 236 238 235 233 226 220 221 232 252 262 249 247 259 281 301 296 303 303 305 312 317 314 309 306 302 305 315 293 308 312 299 289 302 317 322
226 225 229 223 221 223 218 221 224 226 231 235 228 216 219 228 249 255 239 237 249 262 295 325 329 325 329 337 340 334 304 298 304 304 329 331 315 330 315 293 302 316 315